sat.trackr.live / text

‹ back to catalog

STARLINK-2474

NORAD 48132 · 2021-027AS

PAYLOAD ACTIVE UNKNOWN

§ Identity

Operator
Country
US
Launch date
2021-04-07
Launch site
AFETR
Launch vehicle
Mass (kg)
RCS (m²)

Purposes: comms

External: N2YO · Heavens-Above · Gunter

§ Orbital elements

Epoch: 2026-05-25T02:32:30.102144Z

Period
94.01 min
Inclination
53.1569°
Eccentricity
0.0001248
Mean motion
15.31701413 rev/d
Perigee alt
469.9 km
Apogee alt
471.6 km
Semi-major
6,848.9 km
B*
-1.0451e-5
RAAN
172.3658°
Arg perigee
79.8301°
Mean anomaly
280.2841°
Rev number
28,417

§ Raw data

STARLINK-24741 48132U 21027AS  26145.10590396 -.00000689  00000+0 -10451-4 0  99902 48132  53.1569 172.3658 0001248  79.8301 280.2841 15.31701413284177

JSON: /api/v1/satellites/48132 · /tle

For live sub-satellite position, see the globe view (requires WebGL).

§ Visibility from observer

Set your observer location to see the next 7 days of passes ≥ 10°. The values pass through the URL so the page stays shareable.

No JS? Fill the form by hand. The geolocation button needs JavaScript.